Wind_Speed
76 76 77 77 78 78 78 78 78 78 77 76 75 73 72 70 70 71 72 73 75 77 82 86 87 86 85 84 82 80 79 77 75 74 74 72 71 69 68 67 67 66 65 64 64 63 64 64 64 64 65 65 65 65 64 64 63 63 63 65 66 66 65 64 63 63 62 61 60 60 60 60 61 63 67 67 65 66 65 61 58 57 57 56 56 55 52 50
78 78 78 79 79 80 80 80 81 81 80 80 79 77 75 73 72 71 71 71 72 74 76 81 86 87 86 84 83 81 80 78 76 75 75 71 70 68 67 66 66 66 64 64 63 63 63 63 64 64 64 64 64 64 63 63 63 63 65 65 65 64 64 63 63 63 63 62 62 62 62 62 62 64 68 67 66 67 66 62 59 59 58 58 57 55 53 51
81 81 81 81 81 81 81 82 82 83 83 83 82 81 80 77 75 73 71 70 70 72 73 76 81 86 87 85 84 83 81 78 77 77 74 70 70 68 66 67 66 65 64 63 63 63 63 63 63 64 64 64 63 63 63 63 63 64 66 65 64 64 64 63 64 64 64 64 63 63 64 63 63 65 69 68 67 67 66 63 61 60 60 59 57 55 54 53
79 80 81 82 82 82 82 83 84 84 85 85 85 84 83 81 79 76 73 71 70 70 72 74 76 81 85 86 86 84 82 79 78 78 74 71 70 68 67 67 66 65 64 63 63 62 62 62 63 63 63 63 63 63 62 63 63 65 66 65 64 64 64 64 64 65 65 65 64 65 65 64 64 66 69 69 67 67 66 64 62 61 60 59 58 56 55 53
76 77 79 80 81 81 82 83 84 85 86 86 86 86 86 84 83 80 77 73 71 70 70 72 74 76 80 85 87 85 83 81 80 78 74 72 71 68 68 67 66 65 64 63 62 62 62 62 62 62 63 63 63 63 63 64 64 65 66 65 64 65 65 64 65 65 65 66 65 65 65 65 64 66 68 67 67 66 66 64 62 61 59 59 59 57 54 51
75 76 77 78 78 79 80 81 83 84 86 87 87 88 87 87 85 84 81 78 74 71 70 71 72 73 75 80 86 87 84 82 81 79 75 73 72 70 69 68 67 65 64 63 62 61 61 61 61 62 63 63 63 64 64 64 64 66 66 65 65 65 65 65 65 65 65 65 66 66 65 65 64 65 66 66 67 66 65 63 61 59 57 57 57 56 53 50
76 76 75 76 76 77 77 78 80 82 84 86 87 88 88 88 87 86 84 82 78 74 72 71 70 71 73 76 81 86 86 84 83 81 77 75 73 71 69 68 67 65 64 63 62 61 61 61 62 63 63 64 64 63 63 64 64 65 65 65 65 65 65 65 65 64 64 64 65 66 65 63 62 62 63 64 65 64 63 61 59 57 55 55 56 55 52 50
76 76 75 75 75 75 75 75 77 79 82 85 86 87 88 89 88 87 86 85 82 78 75 72 70 69 71 73 76 82 87 87 85 82 79 76 74 71 70 68 67 65 64 63 62 62 61 61 62 62 63 64 64 63 62 62 63 65 65 65 65 64 64 64 63 62 61 62 64 63 62 61 59 59 60 61 62 61 61 59 57 54 53 54 55 54 51 49
74 74 74 74 74 73 74 74 76 78 80 82 84 85 87 88 88 87 87 86 84 81 79 75 71 68 69 71 73 77 85 88 87 84 81 78 76 73 71 69 68 66 65 63 62 62 62 62 62 62 63 63 62 61 61 61 63 65 65 64 63 63 62 61 61 60 59 60 63 62 59 59 58 57 57 59 59 58 58 57 55 52 52 54 54 52 51 50
69 70 70 71 71 71 72 73 75 76 78 80 81 82 84 85 87 87 86 86 84 83 82 78 73 69 68 70 72 75 80 86 88 87 84 81 78 75 72 70 69 67 66 64 63 63 63 63 62 62 62 61 60 60 61 61 62 63 62 61 61 61 60 60 60 60 59 59 61 61 58 57 56 56 57 57 56 55 55 55 53 51 52 54 54 51 49 49
64 64 65 66 66 68 69 70 71 73 75 76 77 79 80 82 83 84 85 85 84 84 83 80 75 71 69 69 71 74 77 82 87 88 86 83 80 76 73 71 70 68 66 65 65 64 64 63 61 60 60 59 59 60 60 60 60 61 60 60 59 58 58 58 59 59 57 57 59 58 57 56 56 56 55 53 52 52 52 53 51 51 53 54 52 49 48 49
60 60 61 61 62 63 64 66 67 69 70 72 73 74 76 78 79 81 82 83 83 83 83 81 77 74 70 69 71 74 75 77 84 87 86 84 81 77 74 72 70 68 67 66 66 65 63 62 60 59 58 58 59 59 58 59 59 59 59 58 58 57 57 57 56 56 56 56 57 56 56 57 56 54 52 50 49 50 50 50 49 51 54 53 51 49 48 48
59 60 61 61 62 63 64 65 66 67 68 68 69 71 72 74 75 77 78 80 81 82 81 80 78 76 73 72 71 71 72 75 80 84 85 84 81 79 75 73 70 69 68 67 66 64 62 60 58 57 58 59 59 58 57 58 57 56 57 57 57 57 55 54 53 53 55 56 55 54 56 58 56 54 52 49 48 49 48 48 48 51 53 51 50 49 48 47
62 63 64 64 65 66 67 68 69 69 70 70 70 71 72 72 73 74 75 77 79 80 79 78 78 77 75 73 69 69 72 74 78 82 84 83 81 79 76 73 71 69 68 67 65 63 61 60 59 59 60 59 58 57 57 56 54 55 55 56 57 56 54 52 52 52 53 53 53 53 56 57 55 54 52 49 47 46 46 45 47 51 52 50 49 48 47 47
65 66 67 68 69 70 70 71 72 73 73 73 74 74 75 74 74 75 75 76 77 78 78 77 77 77 77 74 68 68 72 74 76 80 83 82 80 79 77 74 71 70 69 67 66 64 62 61 60 60 60 58 56 56 55 54 54 55 55 55 56 55 54 53 52 52 52 51 50 52 55 56 55 54 52 49 47 45 44 44 47 50 50 48 48 47 46 47
69 69 70 71 72 73 73 74 75 75 75 76 76 77 77 77 77 76 77 77 77 78 77 75 76 76 77 74 70 71 74 76 76 78 81 81 79 78 77 75 72 70 68 67 66 64 63 62 60 59 58 56 55 55 54 53 54 55 55 56 56 55 54 53 53 52 51 50 49 51 53 54 54 52 51 49 47 44 43 43 46 47 47 47 46 45 46 47
71 72 72 73 74 74 75 76 76 77 77 78 78 78 78 78 78 77 77 78 78 78 77 76 76 77 76 74 73 73 75 76 75 76 80 81 79 77 76 74 72 70 68 67 66 64 62 61 60 59 57 55 55 55 53 53 55 57 57 57 56 54 53 52 52 52 50 48 47 50 52 52 52 52 51 50 48 46 44 44 45 45 46 46 45 44 44 45
73 73 73 73 74 74 74 75 75 75 76 77 78 78 78 78 77 76 77 79 78 77 77 77 77 77 76 76 76 73 73 75 74 76 79 79 78 76 75 74 72 70 68 67 65 63 62 60 59 57 55 54 55 54 53 55 57 58 57 56 55 53 50 49 50 49 47 46 47 51 54 53 53 53 52 52 51 48 45 45 46 44 44 45 44 43 44 45
71 71 70 70 69 69 69 70 70 70 71 72 72 72 72 72 72 73 75 76 76 76 76 77 77 77 77 77 75 71 72 74 74 75 77 78 77 75 74 73 71 69 67 66 65 63 61 59 57 56 56 56 55 54 55 57 58 57 56 54 53 51 50 49 48 47 45 44 46 49 53 54 55 54 53 52 51 49 46 47 46 44 44 45 45 44 43 44
64 63 61 61 61 61 62 62 62 62 63 63 63 63 63 64 65 67 69 71 73 74 75 76 76 76 76 76 72 70 72 73 73 75 76 77 76 74 73 72 70 67 66 65 64 62 60 58 56 57 58 56 54 53 55 56 56 55 54 53 52 50 49 48 47 47 45 43 43 44 49 53 53 51 50 50 49 47 46 45 45 44 43 44 45 45 44 43
54 53 52 53 53 54 54 54 54 55 55 55 55 55 56 57 58 60 63 65 68 69 70 73 74 74 75 74 72 72 73 73 74 74 75 75 75 73 71 70 68 66 65 65 63 60 58 56 58 59 58 54 52 53 54 54 54 54 52 51 50 49 48 47 46 47 46 45 43 42 44 47 48 49 49 49 47 46 45 45 44 43 42 42 44 45 45 43
46 46 46 47 47 47 47 48 48 49 49 50 50 51 52 53 55 57 60 63 65 66 68 71 71 73 74 73 72 73 73 72 72 72 73 74 73 71 70 69 67 67 66 64 60 57 56 58 60 58 55 52 51 52 53 53 53 52 50 49 49 49 47 46 45 45 45 46 46 45 44 46 51 54 52 50 49 47 47 46 44 42 41 42 43 45 45 44
40 41 41 42 42 42 42 43 44 45 46 47 48 49 51 52 54 55 57 60 62 63 65 67 69 71 72 72 72 72 71 71 71 71 72 72 72 71 70 69 68 67 64 61 58 57 59 61 59 55 52 50 50 51 52 51 51 50 48 47 48 48 47 44 43 42 42 43 44 45 46 49 54 55 52 53 52 49 47 46 44 43 41 41 42 43 45 45
36 37 38 38 38 38 39 41 42 43 45 46 47 49 51 53 54 53 52 53 55 57 61 65 66 67 69 70 70 70 70 70 70 71 72 72 71 70 69 68 67 64 61 59 58 60 61 59 56 53 50 50 50 50 51 50 49 48 46 47 48 47 45 41 39 38 37 38 39 41 44 46 49 50 52 55 54 50 47 45 43 41 40 40 40 41 45 46
32 33 34 35 35 36 37 39 41 42 43 45 48 50 52 54 56 54 52 51 51 54 58 61 63 64 65 66 67 68 69 69 69 69 71 71 71 69 67 66 64 62 60 59 59 61 59 56 53 52 50 49 49 50 50 49 48 47 46 47 48 45 41 38 36 36 35 35 36 38 40 40 41 44 50 52 50 49 45 42 40 39 39 40 41 43 47 49
29 31 32 33 34 35 36 38 39 41 44 46 48 50 52 55 57 56 55 54 54 54 56 59 61 61 60 60 63 66 66 66 66 67 69 69 68 67 66 63 61 60 59 58 59 59 56 54 53 51 50 49 48 49 48 47 47 45 45 48 47 42 39 37 34 34 35 36 35 34 35 36 38 43 48 47 46 46 44 41 41 41 42 44 46 49 50 52
27 29 30 32 33 34 36 38 41 44 47 50 51 53 54 54 55 56 55 56 56 55 55 57 58 58 58 59 62 63 63 64 65 65 66 66 65 65 63 62 61 60 59 57 57 56 54 53 52 50 49 48 47 48 48 47 46 44 46 48 44 39 38 36 33 32 34 36 37 36 37 38 41 45 49 48 46 47 47 46 46 45 46 48 49 50 50 52
26 28 30 32 34 36 38 41 44 48 51 53 55 55 55 54 53 53 53 53 53 54 54 53 54 55 56 57 59 61 63 63 62 63 65 65 64 63 62 61 60 59 58 56 56 56 54 53 52 50 49 47 47 48 47 47 46 45 47 45 41 39 37 34 32 31 33 35 36 36 38 40 43 46 48 48 46 47 48 48 48 46 46 48 48 48 48 50
25 27 30 33 36 38 41 44 48 50 53 55 55 54 53 52 51 50 49 48 49 51 51 51 53 53 54 55 58 61 62 60 60 63 65 64 63 63 62 61 61 60 57 55 56 56 54 53 51 49 48 47 47 48 47 46 46 46 45 42 41 39 36 33 31 32 33 34 34 35 37 38 40 41 43 45 43 44 46 46 46 46 45 46 45 44 44 46
26 29 32 34 37 40 44 47 50 52 54 55 54 53 51 48 46 45 44 45 47 48 49 50 51 52 53 55 57 59 59 59 60 62 62 62 61 61 61 61 60 58 55 54 56 55 52 51 49 47 47 47 46 46 46 45 46 46 44 42 41 38 35 33 31 32 34 33 34 37 37 36 35 35 38 41 41 42 45 46 46 46 44 44 43 40 40 42
28 31 33 36 39 42 47 50 51 53 54 54 53 51 49 46 43 42 43 44 45 46 48 49 49 51 52 54 55 57 58 58 58 58 59 59 58 58 58 58 57 54 52 52 54 52 50 49 48 48 48 47 46 46 46 46 46 46 44 42 41 37 35 33 32 35 35 34 38 40 38 35 33 32 35 38 41 43 45 47 47 45 43 42 41 40 38 39
31 34 36 38 41 44 48 50 51 52 53 53 51 48 46 44 43 43 42 43 44 46 47 48 48 50 51 53 54 55 55 55 56 57 58 58 57 58 57 55 54 52 51 52 53 52 50 50 49 49 49 47 47 47 47 47 47 46 44 42 40 37 35 34 35 37 36 37 40 40 38 36 34 33 34 37 41 43 46 48 48 44 40 39 40 39 38 37
33 36 38 40 42 45 47 49 50 51 51 50 49 46 43 42 43 44 44 44 46 48 48 49 49 50 51 52 52 52 52 53 55 58 59 58 58 59 58 57 56 53 53 55 55 53 53 52 51 51 49 48 48 48 48 47 46 45 44 43 41 37 36 36 37 38 37 39 41 40 39 37 36 36 34 35 40 43 45 46 47 44 39 37 37 37 37 37
35 38 40 42 44 45 46 47 48 49 49 48 46 44 43 43 44 45 45 47 48 48 49 50 50 50 51 52 52 52 52 53 55 57 58 58 57 57 57 56 55 55 55 56 55 54 53 52 52 52 50 49 49 49 48 47 45 44 44 43 41 38 38 38 39 39 38 38 39 40 40 38 38 37 34 36 41 43 44 44 45 42 36 34 34 32 34 35
38 40 42 44 46 47 47 47 48 49 48 47 46 45 45 45 44 45 46 47 48 48 49 50 50 50 51 51 51 51 52 53 55 56 56 56 57 57 57 56 56 55 55 55 54 54 53 52 52 52 50 49 49 48 47 46 44 45 45 43 42 41 41 40 40 40 38 38 40 41 41 40 39 39 37 39 41 43 44 44 45 42 35 32 32 29 31 34
39 42 45 47 49 49 49 48 48 48 47 47 46 47 48 47 45 45 46 46 47 47 47 47 48 49 50 51 51 51 51 52 54 55 56 56 56 57 57 57 57 56 55 55 55 55 54 54 54 53 50 49 50 49 48 47 46 46 45 44 44 44 42 41 40 40 39 40 42 42 42 42 41 40 40 40 41 41 43 44 44 42 36 32 31 28 30 34
39 43 47 49 51 51 51 49 48 47 47 48 49 49 48 46 45 44 45 45 45 45 45 46 48 50 51 51 52 52 52 52 53 54 55 55 56 56 57 57 57 57 57 57 57 56 56 55 55 53 50 50 51 50 48 47 46 46 46 46 46 44 43 42 42 41 41 42 43 42 43 43 42 41 41 41 41 41 41 42 43 40 34 30 29 28 31 36
41 44 47 50 51 52 51 51 49 48 48 49 50 48 47 45 44 43 44 45 46 45 45 46 47 49 51 52 53 53 52 52 53 54 55 56 56 57 58 58 58 58 58 57 56 56 55 54 53 52 51 51 51 49 47 47 47 47 48 48 46 44 44 44 43 42 42 43 43 43 44 44 42 41 42 43 43 41 41 41 41 37 31 28 28 29 32 37
44 45 48 50 51 51 52 52 51 50 50 51 50 49 48 46 44 44 43 44 44 44 44 45 47 48 50 51 51 51 51 51 52 54 55 57 58 58 58 57 57 57 56 55 55 56 55 53 52 51 50 49 49 49 48 49 49 49 49 48 47 46 46 45 45 44 43 43 43 43 45 45 43 42 42 43 43 42 40 39 38 33 30 29 29 30 34 37
46 47 48 50 51 51 51 52 53 53 53 52 51 51 49 47 45 44 42 42 42 43 44 45 48 50 51 50 49 50 51 51 52 54 55 56 57 56 55 54 55 55 54 54 54 54 53 51 51 51 50 49 50 51 52 52 51 50 49 48 47 47 46 45 45 45 44 44 43 44 45 44 42 42 42 43 43 41 38 36 34 31 30 31 31 33 35 37
48 48 49 50 50 50 51 52 54 55 54 52 51 50 49 47 46 44 43 43 43 44 45 47 48 49 49 50 50 51 51 50 51 52 53 54 54 53 52 52 53 53 53 53 53 52 50 49 50 51 51 50 51 53 54 53 51 49 48 46 46 46 45 44 44 43 43 44 44 45 44 42 41 42 42 42 41 39 35 32 32 31 31 32 33 35 36 37
50 49 49 51 51 51 52 52 53 53 52 50 48 47 46 46 45 44 44 44 44 45 47 48 48 47 47 49 50 50 51 51 51 50 50 51 51 51 51 51 52 53 53 53 51 50 49 50 51 52 51 51 52 52 53 52 50 48 46 44 44 44 42 41 42 43 44 45 44 43 41 40 40 41 40 39 39 37 32 30 32 32 32 32 34 36 36 37
52 50 50 52 53 53 53 52 51 51 51 48 45 44 44 45 46 47 47 46 45 45 46 47 47 48 48 49 50 50 51 52 52 52 51 50 50 50 50 51 53 53 53 53 52 51 52 52 52 53 53 53 53 52 51 51 49 46 44 43 43 43 42 42 44 45 45 44 42 41 41 41 41 40 39 40 38 34 30 31 34 35 34 34 36 37 37 38
55 53 52 52 54 55 55 54 52 49 49 48 46 44 44 46 48 50 50 49 47 45 45 45 46 47 48 49 50 51 52 52 52 51 50 50 51 51 52 52 53 53 53 53 53 53 53 53 54 55 54 54 54 53 51 51 49 46 45 45 45 45 45 46 47 46 43 41 40 41 42 41 40 40 39 39 37 34 32 33 36 37 37 37 38 38 39 39
57 55 54 54 54 56 57 57 54 52 51 52 50 48 48 50 52 52 50 49 47 46 46 46 46 48 50 50 51 52 53 53 53 51 49 49 50 52 54 54 54 54 54 54 54 54 54 54 54 55 54 54 54 52 50 49 49 48 48 48 47 47 46 45 45 43 40 39 40 41 41 40 39 39 38 37 36 36 34 35 38 39 39 39 39 39 39 40
59 57 55 55 54 54 54 54 54 54 54 54 54 53 53 54 53 52 50 49 48 47 47 49 49 51 52 53 54 54 55 55 54 53 52 51 52 53 54 54 55 55 55 56 55 55 55 55 55 55 54 54 53 52 50 50 51 51 50 49 48 46 44 44 43 41 39 39 40 40 40 40 38 38 37 36 36 37 38 39 40 40 40 40 40 40 40 40
61 59 57 56 55 54 53 52 53 54 53 53 53 54 54 54 53 52 51 50 50 49 48 49 51 52 53 54 55 56 58 57 57 57 56 55 56 56 56 56 56 56 56 57 57 56 57 56 55 55 55 55 55 54 52 52 52 51 49 48 46 44 43 43 42 40 39 39 39 39 40 40 39 38 37 35 35 38 40 42 43 41 41 41 41 40 40 40
57 59 59 58 56 55 53 53 53 53 51 51 51 51 50 50 50 50 49 49 49 49 48 49 51 53 54 55 56 57 58 58 58 58 58 58 59 60 61 60 60 59 58 58 58 57 57 56 55 55 54 54 55 55 53 53 52 50 48 47 46 43 43 44 42 40 39 39 39 39 39 40 39 38 38 35 34 38 42 44 45 44 43 43 43 42 41 42
48 52 55 57 57 56 55 53 52 50 49 48 48 47 47 47 48 48 49 49 49 49 50 50 51 52 52 54 55 55 55 56 57 58 58 59 60 61 62 62 63 63 62 61 61 60 58 57 55 54 54 54 54 53 53 52 52 51 50 48 46 44 44 44 43 41 40 40 40 39 39 41 39 38 37 35 34 36 42 45 47 47 46 45 45 44 42 42
42 45 48 51 53 54 54 53 52 50 49 48 47 47 46 47 47 47 47 47 47 48 49 48 48 47 46 48 49 50 51 53 55 56 58 59 60 62 62 63 63 64 63 63 62 61 60 59 57 56 56 56 56 56 55 55 54 53 52 50 48 47 46 45 44 42 42 42 41 40 40 41 39 36 35 35 34 34 39 44 47 48 48 48 47 46 45 43
43 44 44 44 45 45 45 44 44 45 45 45 45 44 44 44 44 43 43 44 45 46 45 45 43 42 43 45 46 48 50 52 53 55 56 58 61 63 64 64 64 64 63 63 62 61 61 59 58 58 59 59 60 60 60 59 58 57 55 53 51 50 48 46 45 44 44 43 42 40 40 40 38 35 34 35 36 34 36 42 46 48 49 50 50 50 48 46
42 42 41 40 39 38 38 37 38 39 40 41 41 41 41 42 42 42 42 43 44 44 43 43 42 42 43 45 46 48 50 51 51 51 52 55 58 60 62 63 63 63 63 63 62 62 62 61 59 60 62 63 64 64 63 63 62 61 59 56 53 51 49 47 46 46 46 44 42 41 39 38 37 35 34 35 36 34 34 38 45 49 51 52 53 53 51 48
Wind_Direction
256 256 256 256 256 256 256 257 258 258 259 259 258 256 254 251 248 247 246 245 244 243 243 242 241 241 241 241 241 241 241 241 241 241 241 241 242 243 244 245 245 246 247 248 249 250 251 252 253 254 255 255 256 257 258 258 258 259 258 259 260 263 264 265 266 267 268 268 268 268 268 267 267 268 269 270 271 271 271 271 271 271 270 269 268 267 267 266
256 256 255 254 254 254 254 254 255 255 256 256 257 257 256 253 251 248 246 245 243 243 242 242 241 240 240 240 240 240 240 240 240 240 240 241 241 242 242 243 244 245 245 246 248 249 250 251 252 253 254 255 256 257 257 258 258 258 259 259 261 263 264 266 266 267 268 268 268 269 268 268 268 268 269 269 270 271 271 272 271 271 270 268 267 267 265 264
257 257 256 254 254 253 253 252 252 252 253 253 254 255 255 255 253 250 247 245 243 242 241 241 241 240 239 239 239 239 238 239 239 239 239 240 240 240 241 242 243 243 244 246 247 248 249 250 252 253 254 255 256 257 257 258 259 259 260 261 262 264 265 266 267 268 269 269 269 269 269 268 268 268 268 269 270 271 272 272 271 270 269 268 267 265 264 263
257 257 256 255 254 253 252 251 251 251 251 251 251 252 253 254 254 252 250 246 243 242 241 240 240 240 239 238 238 238 237 237 237 238 239 238 239 239 240 241 242 243 244 245 246 247 249 250 251 253 254 255 256 257 258 259 260 261 262 262 263 265 266 267 268 269 270 270 270 269 269 269 268 269 269 270 270 271 271 271 270 269 268 267 266 264 263 263
258 257 257 256 255 253 252 251 250 250 249 249 249 250 250 251 252 252 252 249 245 242 240 240 239 239 239 238 237 237 237 236 236 237 237 237 238 238 239 240 241 242 243 244 245 247 248 250 251 253 254 255 257 258 259 260 261 263 264 265 265 266 267 269 270 271 271 272 271 270 270 269 269 269 270 271 270 269 270 269 268 268 268 267 266 264 262 261
260 259 258 257 256 255 252 250 249 249 249 248 248 248 248 249 249 250 251 250 248 244 241 239 238 238 238 237 236 236 236 235 236 236 235 236 237 237 238 240 240 241 242 244 245 246 248 250 251 253 255 256 257 259 260 262 263 264 266 267 267 268 269 270 271 272 273 273 272 271 270 269 270 270 270 270 269 269 268 268 268 267 267 266 265 264 261 259
262 261 259 259 258 256 254 251 249 248 248 247 247 246 246 247 247 248 249 250 249 247 243 240 238 237 237 237 236 235 234 234 235 235 234 235 236 237 238 239 240 241 242 243 245 246 248 249 251 253 255 257 258 260 262 264 265 266 267 268 269 270 271 272 273 273 273 273 271 270 270 270 269 269 269 268 268 269 268 267 267 267 266 265 263 262 261 259
262 261 260 259 258 256 254 251 249 248 247 246 246 245 245 245 245 245 246 247 248 248 246 242 238 236 236 236 236 235 233 233 234 234 233 234 235 236 238 239 240 241 242 243 244 246 247 248 250 253 255 257 259 261 264 265 266 267 268 269 271 272 273 273 273 273 272 271 270 270 270 270 268 267 267 267 267 267 267 267 267 266 265 263 261 260 260 259
262 261 260 258 257 256 254 251 249 248 247 246 245 245 244 244 243 243 244 245 246 247 247 245 240 236 235 236 235 235 233 232 233 233 233 234 235 236 237 238 239 240 241 242 243 244 246 247 250 252 255 258 261 263 264 265 266 268 269 271 273 273 273 273 273 271 270 270 270 270 270 269 268 267 265 264 265 266 267 267 266 265 263 260 259 259 259 258
261 260 259 258 256 255 254 252 250 248 247 246 245 244 243 243 242 242 242 242 243 244 245 245 242 237 235 235 235 234 233 232 232 232 233 233 234 235 236 237 238 239 240 241 242 243 245 247 250 253 256 259 262 263 264 265 268 270 271 272 273 273 273 273 272 271 271 271 272 271 270 269 268 266 264 264 265 266 266 265 265 264 261 259 259 258 258 257
260 259 258 257 256 255 253 252 250 249 247 246 245 244 243 242 241 240 240 241 241 242 243 244 243 239 235 234 234 234 233 232 231 231 232 233 234 234 235 237 238 239 240 241 241 243 245 247 250 254 257 259 261 262 264 267 269 271 272 272 273 274 274 273 273 273 273 272 271 272 271 269 267 265 265 265 266 265 264 264 264 262 260 259 259 258 256 255
260 259 258 257 256 255 253 252 251 249 247 246 245 243 242 241 240 239 239 239 239 239 240 241 242 240 237 234 233 233 232 232 231 230 231 232 234 234 235 236 237 238 239 240 241 243 245 248 251 254 256 258 260 262 265 267 269 271 273 273 274 273 273 273 274 275 274 272 271 272 272 269 267 266 266 266 265 264 264 264 263 261 260 259 259 257 255 254
260 259 258 257 256 255 254 253 251 249 248 246 244 243 242 240 239 238 237 237 237 237 237 238 239 239 238 235 233 232 232 232 231 230 230 232 233 234 234 235 236 237 239 240 241 243 246 248 250 252 254 256 259 263 265 267 269 271 273 274 274 273 273 274 274 273 272 272 273 273 271 270 270 269 267 265 264 264 264 263 262 261 260 259 258 257 255 254
261 260 259 258 257 256 255 253 252 250 249 247 245 243 241 240 238 236 235 235 234 235 235 235 236 237 237 235 232 231 232 231 230 229 229 230 231 232 233 234 235 236 238 239 241 243 244 246 248 251 253 257 261 264 265 267 269 270 272 273 274 274 274 273 272 271 271 272 273 272 270 270 270 269 268 266 265 265 265 265 263 262 260 259 258 257 256 254
262 261 260 259 258 257 256 254 253 251 250 248 246 244 242 240 238 236 234 233 233 232 232 232 233 234 235 235 231 230 231 230 229 228 228 228 229 230 231 232 234 235 237 238 240 241 243 245 248 251 254 258 261 263 264 266 268 269 270 271 273 275 275 273 272 271 270 270 270 269 267 267 268 268 268 268 267 267 266 266 264 264 263 260 258 257 255 253
264 263 261 260 259 257 256 254 253 252 250 248 247 245 242 240 238 235 234 232 231 231 230 229 230 231 233 233 230 228 229 228 227 227 226 227 228 229 230 231 232 234 235 237 239 241 243 245 248 251 255 258 260 261 263 265 266 267 268 270 273 275 276 275 273 271 270 270 269 266 263 264 266 267 269 270 270 269 267 266 265 266 264 261 258 256 254 253
266 264 263 261 259 258 256 254 252 251 249 248 246 244 242 240 237 235 233 232 230 229 228 227 227 228 230 231 229 227 227 227 226 225 225 225 226 227 229 230 231 233 234 236 238 240 243 245 248 251 255 257 259 260 261 262 263 264 267 272 275 277 277 276 274 273 272 270 266 260 258 260 262 265 266 268 269 268 267 265 265 265 265 262 259 256 254 252
268 266 264 262 260 258 255 253 251 249 248 246 244 243 241 239 237 234 232 230 228 227 226 225 224 225 226 227 228 226 225 226 225 224 224 224 225 226 227 229 230 232 234 236 238 240 243 245 248 252 254 256 256 257 258 260 262 266 271 275 277 277 275 271 270 269 268 266 261 256 256 258 260 262 263 265 267 267 265 264 264 263 264 263 260 257 255 252
268 266 263 260 258 255 253 250 248 246 244 242 241 240 238 236 234 231 229 228 226 224 223 223 222 222 223 225 226 225 224 225 224 224 223 223 224 225 226 228 230 232 234 236 238 240 242 245 248 251 252 252 253 255 257 261 265 270 274 276 277 275 272 270 268 265 263 262 259 258 258 258 259 261 263 265 267 266 264 263 262 262 262 263 261 258 255 253
266 263 259 256 253 250 247 245 243 241 239 238 236 235 233 230 228 225 223 222 221 220 219 219 219 219 220 223 224 223 223 223 223 222 222 222 222 224 225 227 229 231 233 235 237 239 242 245 247 248 249 250 252 255 259 263 267 271 273 275 275 274 271 271 270 269 267 265 263 260 259 260 261 263 264 265 265 264 262 261 261 261 261 262 262 260 256 253
262 257 253 250 247 244 242 240 237 235 233 231 229 227 225 222 220 216 214 213 213 213 212 214 215 216 217 219 220 220 221 221 221 221 220 221 221 223 224 226 228 230 232 234 236 239 242 244 245 246 247 249 252 256 260 263 267 270 273 275 274 271 269 269 269 269 268 266 264 261 261 263 266 267 267 266 264 263 262 260 260 260 260 261 262 262 259 254
257 252 248 245 242 239 236 233 231 229 226 224 222 219 216 213 209 206 204 204 204 205 207 209 210 212 214 216 218 218 219 220 220 220 220 220 220 222 223 225 226 229 231 233 236 239 240 241 243 244 247 250 253 257 260 263 266 270 273 273 270 268 267 267 266 265 263 259 258 259 259 262 265 266 267 266 264 262 261 261 260 260 259 259 260 261 260 258
252 247 243 239 236 233 229 226 224 222 219 216 213 210 207 202 199 197 197 198 199 201 203 205 207 210 211 213 215 217 217 218 218 218 218 218 219 220 222 223 226 228 231 233 235 236 237 239 242 244 247 250 253 256 259 262 266 269 271 270 267 266 266 267 266 264 260 257 256 256 255 257 261 264 265 264 262 261 260 261 260 259 259 258 259 259 259 257
246 241 237 233 229 225 222 219 217 214 212 209 206 202 198 193 189 189 190 192 196 200 202 204 206 208 210 212 214 215 215 216 216 216 216 216 218 220 221 223 226 228 230 232 234 235 237 240 243 245 248 250 252 255 258 261 265 268 269 267 265 266 267 267 264 262 260 258 256 255 253 254 258 262 262 260 259 259 258 258 259 259 258 257 256 257 257 255
239 234 230 225 221 217 214 213 211 208 204 200 197 194 190 185 182 182 184 187 193 199 203 204 205 207 209 211 213 214 215 215 216 216 216 216 217 219 221 223 225 227 230 231 232 234 237 239 242 244 247 249 251 255 258 261 264 267 267 264 264 266 268 266 262 260 258 256 254 253 253 254 255 256 257 258 260 260 258 256 256 257 256 255 254 253 254 254
232 227 223 218 213 209 207 205 202 198 193 190 188 185 182 181 180 181 183 187 191 197 203 205 205 206 207 209 212 213 214 215 215 215 216 216 218 219 221 222 224 226 228 230 232 235 237 239 241 243 245 248 251 254 257 260 264 266 263 261 264 267 267 264 261 259 255 253 252 252 252 251 250 251 254 258 263 265 265 263 260 259 257 255 253 252 252 253
225 220 216 211 205 200 198 195 191 188 184 182 180 177 176 178 182 184 187 190 194 198 204 206 206 205 206 208 210 212 213 213 214 214 215 216 217 219 221 222 224 226 228 230 233 235 237 239 241 242 244 247 250 253 256 260 263 263 260 261 266 267 265 264 262 259 256 254 253 251 251 251 250 253 256 258 262 267 269 267 264 262 259 257 254 252 252 252
218 213 208 202 196 192 189 186 183 182 180 178 176 175 174 176 181 186 189 193 197 201 205 207 207 205 205 207 210 211 212 212 212 213 214 215 216 218 219 221 223 225 227 229 231 233 234 237 238 240 243 246 248 251 255 259 262 260 259 263 267 266 266 266 263 259 257 256 256 255 253 253 254 257 261 263 264 267 269 268 266 263 260 259 257 255 254 253
210 204 200 195 189 186 183 181 180 179 178 176 174 173 174 177 182 186 190 194 197 201 204 205 206 204 204 205 208 210 212 211 211 214 214 214 216 218 219 220 222 223 225 227 229 231 233 235 238 240 244 246 248 252 256 259 260 259 261 264 264 265 266 266 264 261 259 259 261 259 255 255 257 261 265 267 266 266 266 267 267 266 264 262 261 258 256 254
199 195 193 188 184 181 178 177 178 177 176 174 172 172 174 178 183 186 189 192 196 199 201 204 204 203 202 204 207 210 210 209 210 214 214 214 216 218 220 221 223 224 225 227 230 232 233 235 238 241 244 246 248 252 255 258 258 258 260 261 262 264 266 267 267 263 262 262 262 260 258 259 261 263 267 269 269 268 267 267 266 267 267 267 266 261 255 252
190 189 187 183 180 177 176 176 176 176 174 173 171 172 174 177 181 184 188 192 195 198 200 202 203 203 202 204 207 209 210 209 210 213 214 214 216 219 221 223 224 225 225 227 231 233 234 236 239 241 242 244 246 249 252 254 256 258 260 260 262 264 265 267 266 263 264 264 262 262 263 265 267 268 269 271 273 273 272 271 269 268 269 270 268 263 255 248
184 184 182 179 177 176 175 176 175 174 173 172 171 171 174 177 180 184 188 191 195 198 199 200 201 202 202 203 205 208 209 209 210 212 214 213 214 217 218 220 221 221 222 224 228 230 232 234 236 239 241 242 244 247 251 254 256 259 260 260 260 262 263 264 263 263 265 264 264 266 269 271 272 271 272 275 277 276 276 275 274 273 273 272 268 263 256 246
181 181 178 176 175 174 174 174 174 173 173 172 170 170 173 178 183 186 188 192 196 198 198 198 199 201 201 202 204 206 207 208 209 212 213 212 213 216 217 218 219 219 220 223 226 228 230 232 234 237 239 240 242 246 250 254 256 257 257 257 258 260 261 261 260 262 263 265 268 271 272 272 271 272 275 277 277 278 279 277 276 276 274 272 268 261 254 244
179 178 176 174 172 172 172 172 173 173 172 171 169 169 174 182 186 187 190 194 197 199 198 197 198 199 200 201 202 203 205 207 209 212 214 213 214 217 219 221 222 222 224 226 229 231 233 235 236 237 237 239 242 246 251 254 255 256 255 256 257 258 258 257 258 261 264 267 270 271 271 271 271 274 274 273 274 278 280 278 277 279 276 270 265 256 246 238
177 176 173 171 169 169 170 171 171 171 171 170 168 171 179 185 187 188 192 195 197 200 200 197 197 198 200 201 201 202 204 206 208 211 213 213 214 217 219 220 222 223 225 228 230 231 233 234 235 236 237 239 244 247 251 252 252 253 254 255 255 254 255 256 259 263 266 268 269 270 272 273 274 277 276 274 276 279 280 279 279 280 278 271 261 248 236 231
175 174 172 170 168 168 170 171 172 171 170 170 172 178 183 185 186 190 194 197 198 200 200 199 198 199 201 202 201 202 204 207 209 211 213 213 213 216 218 219 220 222 223 225 226 228 229 230 232 234 236 239 244 247 248 249 249 251 253 253 253 254 256 258 260 262 265 267 269 271 273 276 279 280 280 279 279 279 279 280 280 279 277 270 257 239 226 224
173 173 172 170 169 169 171 172 172 173 173 174 178 182 184 184 186 190 195 198 199 199 200 199 199 200 202 202 202 202 204 207 209 211 213 214 214 215 217 219 220 221 222 223 225 227 228 229 231 234 237 241 244 247 248 250 250 251 252 253 254 255 258 259 260 262 265 268 270 272 275 279 282 282 282 280 278 277 276 277 278 276 271 261 247 232 219 218
173 174 173 172 171 171 172 171 173 176 178 180 182 184 185 185 186 190 195 199 199 199 201 201 200 201 203 204 203 202 203 206 209 211 213 215 216 216 218 220 221 221 222 224 226 228 230 231 233 236 239 242 245 248 250 250 250 250 251 252 254 256 257 259 261 264 266 268 271 274 277 280 281 281 281 281 279 277 276 276 275 271 263 249 236 224 215 213
173 175 174 174 173 172 173 173 176 179 183 185 185 187 188 187 189 193 197 200 200 199 201 203 203 203 204 206 206 205 205 207 210 212 214 216 217 217 218 220 223 224 225 226 228 229 231 232 235 238 240 243 245 247 248 248 248 249 250 252 255 256 258 260 263 265 267 269 271 274 277 279 281 281 281 281 280 279 277 275 270 262 251 239 228 219 212 210
175 176 176 175 175 175 176 177 180 184 186 187 188 189 189 189 192 195 198 201 201 200 202 204 206 205 204 205 207 208 207 209 212 213 214 217 218 219 220 221 224 226 228 229 230 231 233 235 237 240 241 243 245 246 247 247 248 249 251 253 255 257 259 262 264 266 268 269 271 274 277 279 280 280 280 281 280 279 277 272 263 252 241 231 223 215 210 207
176 177 177 177 178 179 180 182 186 188 188 189 191 192 191 191 194 196 200 203 203 202 203 205 207 207 206 205 207 209 209 210 214 217 218 219 221 221 222 223 226 228 229 230 231 233 235 238 240 242 244 245 245 246 248 249 250 252 253 254 256 259 261 263 265 266 267 269 272 274 276 277 277 277 279 280 279 277 274 265 255 245 234 226 220 214 209 206
177 177 179 179 181 184 186 188 190 191 190 191 194 195 195 196 198 199 203 207 207 205 205 206 207 208 208 208 208 210 211 211 214 217 219 222 224 224 224 225 227 228 229 231 232 233 234 237 240 242 243 244 245 247 250 252 253 254 256 257 258 258 260 262 263 264 266 269 272 272 272 272 273 275 278 279 277 273 266 254 245 238 230 223 218 214 210 208
178 178 181 182 184 187 189 191 193 194 193 193 195 198 199 200 202 204 206 210 212 210 208 208 208 209 210 210 210 211 212 213 214 215 216 219 222 223 224 226 228 229 229 231 231 232 233 235 237 240 241 242 244 245 249 252 253 254 255 254 254 256 258 260 262 263 265 267 267 266 266 268 270 274 277 277 273 265 254 242 236 233 228 222 216 212 211 209
180 181 183 184 186 188 190 193 194 196 197 197 197 199 200 201 203 206 208 212 213 212 211 211 211 211 213 213 213 213 214 214 216 217 218 218 220 221 221 223 226 228 229 230 231 232 233 235 238 240 242 244 246 247 248 251 253 253 253 253 254 257 260 261 262 263 263 263 263 263 266 269 272 275 277 276 267 254 243 235 229 228 226 221 216 212 210 209
183 184 186 187 189 191 192 193 194 195 198 200 200 201 203 205 207 208 211 215 217 214 212 214 214 215 216 215 215 216 217 216 217 218 220 222 223 224 222 222 223 225 227 229 230 232 234 236 238 241 243 245 247 248 248 250 251 251 252 254 256 258 259 259 259 260 260 261 262 265 267 269 273 275 278 276 263 246 237 231 226 225 224 221 218 215 211 208
186 187 188 190 192 194 195 196 196 198 200 201 202 204 207 210 212 213 215 218 221 220 217 216 217 218 219 218 217 218 218 218 218 219 220 223 226 227 228 227 226 227 229 230 231 233 234 236 238 241 244 245 246 247 247 248 250 252 254 255 255 255 255 255 257 258 259 261 262 265 267 269 273 276 278 275 260 242 233 229 225 223 223 222 220 217 214 210
190 191 191 192 194 196 198 199 199 201 203 203 204 207 210 214 216 217 219 220 223 225 223 221 221 222 223 223 221 221 220 220 219 219 221 224 226 228 229 230 230 231 232 234 235 235 237 238 240 242 245 246 247 248 248 249 252 253 254 254 253 252 253 255 258 260 260 261 262 264 266 269 273 276 278 272 256 241 233 229 225 224 224 224 222 220 218 215
193 194 195 195 196 197 198 200 201 203 205 206 207 209 211 215 219 221 223 224 227 230 230 229 228 227 227 227 226 225 224 223 223 222 223 226 228 229 230 231 231 231 232 234 236 237 239 240 242 244 246 248 250 251 252 252 253 254 254 254 254 254 255 258 262 261 259 261 262 263 266 268 272 277 277 268 252 239 232 228 225 224 224 225 223 222 222 220
193 196 198 199 199 200 201 202 203 205 208 210 211 213 215 219 223 225 226 227 228 231 232 231 230 229 229 229 230 230 229 229 228 227 227 229 231 233 233 234 234 234 234 235 236 238 239 240 242 243 245 247 249 252 253 254 254 255 255 256 256 255 256 259 261 259 257 260 262 262 264 267 272 277 276 267 254 241 233 227 225 224 224 225 225 225 225 224
191 194 197 199 201 203 204 205 207 208 211 214 216 219 221 223 224 225 225 226 227 229 229 229 230 230 230 232 232 232 232 232 231 230 229 229 231 234 235 236 237 237 238 238 239 240 240 240 241 242 244 245 247 249 251 252 254 255 256 256 257 256 257 258 258 256 256 259 261 262 264 266 271 276 273 265 257 248 236 228 225 224 224 224 226 227 228 227
192 194 195 197 199 201 203 206 207 208 210 213 216 218 220 222 223 223 224 226 227 229 231 231 232 231 232 232 232 232 231 230 229 229 229 229 229 231 234 235 236 238 239 240 241 242 242 242 242 242 243 245 246 247 248 250 252 254 255 255 256 256 257 256 254 253 255 258 261 263 264 266 271 277 273 263 256 252 240 229 225 224 223 223 225 227 229 228
194 195 196 198 199 200 203 205 207 209 211 214 216 218 220 223 224 225 226 228 229 231 233 234 234 233 233 234 234 234 233 232 230 230 230 230 230 231 233 234 235 237 238 240 241 242 243 243 243 243 244 245 245 246 247 249 251 252 252 253 253 253 253 252 251 252 254 257 260 263 264 266 271 276 275 266 259 255 245 233 226 225 224 224 225 227 229 229
Height
10601 10602 10603 10604 10605 10606 10608 10609 10611 10613 10614 10616 10619 10622 10625 10629 10632 10635 10639 10643 10649 10654 10658 10663 10667 10673 10677 10683 10688 10691 10696 10700 10704 10707 10708 10712 10717 10721 10724 10727 10730 10732 10735 10737 10738 10741 10743 10745 10748 10751 10752 10754 10756 10758 10760 10762 10764 10765 10763 10760 10760 10763 10767 10770 10773 10775 10777 10779 10780 10782 10784 10786 10786 10783 10776 10778 10783 10781 10783 10790 10794 10795 10796 10796 10796 10798 10802 10804
10591 10592 10593 10594 10595 10597 10598 10600 10602 10603 10605 10607 10609 10612 10615 10618 10622 10626 10630 10635 10640 10645 10650 10653 10658 10663 10669 10676 10680 10684 10689 10693 10698 10699 10700 10709 10712 10715 10719 10721 10724 10726 10729 10731 10733 10736 10737 10740 10743 10745 10746 10748 10750 10752 10754 10756 10758 10757 10754 10755 10759 10761 10762 10766 10767 10768 10771 10772 10775 10775 10776 10778 10780 10777 10771 10773 10778 10774 10777 10785 10789 10789 10790 10790 10791 10794 10797 10799
10579 10581 10582 10583 10585 10586 10588 10590 10592 10594 10595 10597 10599 10602 10605 10608 10612 10616 10621 10626 10631 10636 10641 10644 10649 10654 10660 10668 10672 10676 10681 10687 10691 10689 10696 10705 10705 10708 10713 10714 10718 10721 10723 10726 10728 10730 10732 10735 10736 10738 10740 10742 10744 10746 10749 10749 10750 10749 10748 10751 10756 10757 10758 10760 10761 10762 10764 10765 10768 10768 10769 10772 10773 10770 10765 10768 10773 10770 10771 10779 10783 10783 10783 10783 10786 10789 10790 10794
10568 10569 10570 10571 10573 10576 10578 10580 10581 10583 10585 10587 10590 10592 10595 10598 10602 10606 10611 10617 10623 10627 10632 10636 10640 10645 10652 10659 10664 10668 10674 10681 10682 10682 10694 10698 10697 10703 10706 10707 10712 10715 10718 10721 10722 10724 10727 10729 10730 10733 10735 10736 10738 10740 10742 10742 10743 10743 10742 10747 10752 10752 10753 10755 10755 10756 10756 10758 10761 10762 10762 10764 10766 10763 10759 10762 10766 10765 10766 10771 10775 10776 10776 10777 10779 10782 10785 10789
10556 10557 10558 10560 10562 10564 10566 10568 10570 10572 10575 10577 10580 10582 10585 10589 10592 10597 10601 10607 10613 10618 10622 10626 10631 10637 10644 10650 10655 10660 10667 10673 10674 10677 10688 10690 10690 10697 10698 10701 10705 10709 10712 10714 10716 10719 10722 10723 10726 10728 10729 10730 10732 10734 10735 10736 10738 10737 10738 10743 10745 10746 10747 10749 10749 10750 10750 10751 10752 10753 10755 10757 10760 10758 10755 10757 10758 10759 10761 10764 10766 10769 10771 10771 10771 10775 10780 10784
10544 10545 10546 10548 10550 10552 10554 10557 10559 10561 10563 10566 10569 10572 10575 10579 10583 10588 10592 10597 10603 10608 10613 10617 10623 10629 10636 10641 10646 10652 10659 10665 10666 10671 10680 10682 10684 10689 10692 10695 10699 10703 10706 10707 10711 10714 10716 10719 10720 10721 10722 10724 10726 10728 10729 10732 10732 10731 10733 10737 10738 10740 10742 10743 10743 10744 10743 10743 10743 10744 10747 10751 10754 10752 10750 10749 10749 10752 10754 10756 10759 10763 10766 10765 10763 10767 10773 10778
10531 10533 10535 10537 10538 10541 10543 10545 10547 10549 10552 10554 10557 10561 10565 10569 10573 10579 10583 10588 10593 10598 10604 10609 10615 10621 10628 10633 10637 10644 10651 10656 10658 10663 10671 10675 10678 10683 10686 10689 10693 10697 10699 10702 10706 10708 10711 10713 10714 10715 10717 10718 10720 10723 10725 10727 10726 10725 10728 10730 10731 10734 10736 10736 10737 10737 10736 10735 10734 10735 10740 10746 10748 10746 10744 10742 10742 10745 10747 10749 10754 10758 10760 10759 10757 10760 10766 10772
10519 10521 10523 10525 10526 10529 10530 10533 10535 10537 10540 10542 10546 10550 10554 10558 10563 10568 10573 10578 10583 10589 10594 10599 10607 10613 10620 10624 10629 10636 10641 10645 10649 10656 10663 10668 10672 10676 10679 10682 10687 10690 10693 10697 10700 10703 10706 10707 10708 10709 10711 10712 10716 10719 10721 10721 10719 10718 10721 10724 10727 10728 10729 10729 10730 10730 10730 10727 10726 10729 10734 10738 10741 10741 10739 10737 10736 10738 10739 10743 10748 10752 10754 10752 10751 10754 10759 10765
10507 10508 10510 10512 10514 10516 10518 10520 10523 10525 10528 10531 10534 10538 10543 10547 10553 10558 10563 10569 10575 10580 10584 10590 10598 10605 10612 10616 10621 10627 10630 10635 10642 10648 10655 10660 10664 10668 10672 10676 10679 10682 10687 10691 10695 10697 10699 10700 10701 10703 10706 10709 10713 10715 10715 10714 10711 10712 10716 10720 10721 10721 10721 10722 10722 10723 10723 10720 10718 10723 10728 10730 10733 10735 10734 10731 10731 10734 10735 10737 10741 10746 10747 10744 10745 10749 10754 10758
10495 10496 10498 10500 10502 10504 10506 10508 10511 10513 10516 10519 10523 10527 10532 10536 10542 10548 10553 10560 10566 10571 10575 10581 10589 10597 10604 10608 10613 10617 10620 10627 10633 10639 10647 10652 10656 10661 10665 10669 10673 10677 10681 10685 10689 10690 10692 10694 10697 10699 10703 10706 10708 10707 10707 10708 10707 10708 10711 10713 10713 10714 10714 10715 10714 10715 10717 10716 10713 10716 10721 10723 10725 10726 10725 10725 10728 10731 10730 10731 10735 10739 10738 10736 10740 10746 10749 10751
10483 10485 10487 10488 10490 10493 10495 10497 10499 10502 10505 10508 10512 10517 10521 10525 10531 10538 10544 10551 10556 10561 10567 10573 10581 10588 10594 10600 10604 10607 10612 10619 10624 10631 10639 10644 10649 10655 10659 10663 10667 10671 10676 10679 10682 10683 10686 10690 10693 10696 10699 10701 10701 10700 10702 10703 10703 10704 10705 10706 10707 10708 10708 10707 10708 10709 10712 10712 10708 10710 10714 10714 10715 10717 10719 10722 10725 10726 10725 10726 10730 10731 10729 10730 10735 10741 10744 10745
10473 10474 10476 10478 10480 10482 10484 10486 10489 10491 10494 10498 10502 10506 10510 10515 10522 10528 10535 10541 10547 10552 10558 10565 10573 10579 10586 10591 10594 10597 10605 10612 10616 10623 10632 10637 10643 10649 10653 10657 10661 10666 10669 10672 10675 10678 10682 10686 10690 10693 10694 10694 10693 10695 10698 10698 10699 10700 10698 10699 10701 10702 10702 10702 10704 10705 10705 10704 10703 10706 10706 10704 10707 10711 10715 10719 10720 10720 10721 10722 10724 10722 10720 10724 10729 10734 10737 10739
10463 10464 10466 10468 10470 10472 10474 10476 10478 10481 10484 10488 10492 10496 10500 10505 10512 10519 10526 10531 10537 10543 10549 10558 10565 10570 10577 10580 10585 10593 10600 10604 10608 10616 10625 10631 10637 10642 10646 10651 10655 10659 10663 10666 10670 10674 10678 10682 10685 10687 10687 10687 10688 10692 10693 10692 10695 10695 10693 10693 10693 10694 10697 10699 10700 10699 10698 10698 10699 10701 10698 10696 10699 10704 10709 10713 10714 10715 10716 10718 10718 10714 10714 10720 10723 10727 10730 10733
10452 10453 10455 10457 10459 10461 10463 10465 10467 10470 10473 10478 10482 10485 10490 10496 10503 10510 10516 10521 10528 10534 10542 10551 10556 10562 10567 10571 10580 10589 10592 10595 10601 10609 10616 10623 10629 10634 10640 10645 10649 10653 10657 10661 10665 10669 10673 10676 10678 10679 10680 10683 10686 10687 10687 10688 10691 10689 10688 10687 10685 10688 10693 10695 10695 10694 10694 10694 10696 10695 10691 10690 10693 10697 10702 10706 10708 10710 10711 10713 10711 10706 10709 10715 10717 10721 10724 10726
10441 10442 10444 10445 10447 10449 10451 10453 10455 10458 10462 10466 10470 10473 10479 10486 10492 10500 10506 10512 10519 10525 10534 10543 10549 10554 10558 10564 10575 10581 10582 10587 10593 10600 10607 10615 10621 10627 10632 10637 10642 10646 10651 10655 10659 10663 10666 10670 10672 10674 10676 10680 10682 10681 10681 10684 10685 10684 10683 10680 10680 10684 10687 10689 10689 10689 10690 10691 10692 10689 10684 10684 10687 10690 10695 10699 10703 10705 10706 10707 10704 10700 10704 10709 10711 10715 10717 10719
10429 10430 10431 10433 10434 10436 10438 10440 10442 10445 10449 10453 10457 10461 10467 10474 10481 10489 10496 10502 10509 10517 10527 10535 10541 10545 10549 10558 10567 10570 10572 10576 10585 10593 10600 10608 10614 10619 10625 10631 10636 10641 10645 10649 10653 10657 10661 10664 10667 10669 10672 10676 10676 10675 10676 10678 10678 10677 10676 10676 10678 10681 10683 10684 10683 10683 10685 10687 10688 10683 10677 10679 10682 10685 10690 10694 10698 10700 10701 10701 10697 10696 10697 10701 10705 10708 10710 10712
10416 10417 10418 10419 10420 10422 10424 10426 10429 10432 10436 10439 10444 10449 10455 10461 10469 10479 10486 10492 10500 10509 10518 10526 10532 10536 10542 10550 10555 10559 10563 10569 10579 10587 10592 10600 10607 10613 10619 10625 10630 10634 10638 10643 10647 10652 10656 10659 10662 10665 10668 10671 10670 10669 10670 10671 10669 10669 10672 10674 10676 10678 10679 10679 10677 10678 10681 10683 10683 10676 10671 10675 10678 10681 10685 10688 10691 10694 10696 10694 10692 10691 10691 10694 10698 10701 10703 10706
10402 10402 10403 10404 10405 10407 10409 10411 10415 10419 10422 10426 10431 10437 10443 10450 10459 10468 10475 10481 10491 10501 10509 10516 10523 10528 10535 10540 10544 10551 10558 10564 10574 10580 10585 10594 10601 10607 10613 10618 10623 10628 10633 10638 10642 10647 10650 10654 10658 10661 10663 10664 10662 10663 10663 10662 10662 10665 10669 10672 10672 10673 10674 10673 10672 10674 10675 10677 10677 10670 10667 10672 10674 10677 10680 10682 10684 10688 10690 10689 10687 10687 10687 10688 10692 10694 10697 10699
10387 10387 10388 10389 10390 10392 10394 10397 10401 10405 10409 10414 10419 10425 10432 10441 10449 10457 10464 10473 10482 10491 10499 10505 10513 10519 10525 10531 10538 10548 10554 10560 10568 10574 10580 10588 10595 10601 10607 10613 10618 10623 10629 10633 10637 10641 10645 10650 10654 10656 10656 10655 10655 10657 10657 10656 10659 10663 10666 10667 10666 10667 10667 10667 10668 10669 10669 10670 10671 10668 10665 10666 10668 10671 10675 10676 10677 10680 10683 10682 10682 10683 10683 10683 10685 10688 10690 10693
10373 10373 10374 10376 10377 10379 10382 10386 10390 10395 10399 10404 10410 10417 10424 10431 10439 10447 10455 10463 10471 10481 10490 10497 10504 10511 10518 10526 10536 10544 10548 10554 10561 10567 10574 10582 10589 10595 10601 10608 10614 10619 10623 10626 10631 10636 10641 10646 10648 10647 10645 10647 10651 10652 10651 10653 10656 10659 10660 10660 10660 10659 10660 10661 10662 10662 10664 10665 10666 10665 10662 10660 10663 10666 10668 10669 10670 10672 10675 10676 10677 10678 10679 10679 10679 10682 10684 10688
10360 10361 10363 10364 10366 10369 10373 10377 10382 10386 10391 10397 10403 10410 10417 10424 10431 10439 10446 10454 10463 10473 10481 10488 10496 10505 10513 10522 10530 10535 10541 10548 10554 10561 10569 10577 10584 10591 10597 10603 10609 10613 10616 10620 10626 10633 10638 10640 10638 10636 10639 10644 10647 10647 10647 10650 10652 10653 10655 10655 10653 10653 10654 10657 10657 10657 10658 10660 10661 10661 10659 10658 10658 10659 10660 10661 10663 10665 10667 10670 10672 10673 10675 10675 10674 10675 10677 10681
10351 10352 10353 10355 10357 10361 10366 10370 10374 10379 10385 10391 10398 10405 10411 10418 10425 10432 10439 10448 10457 10465 10472 10481 10491 10498 10506 10516 10523 10528 10535 10543 10550 10557 10565 10573 10580 10586 10591 10597 10602 10605 10609 10616 10625 10630 10632 10629 10626 10630 10636 10641 10643 10642 10642 10645 10647 10648 10650 10649 10647 10646 10649 10653 10654 10654 10655 10656 10656 10658 10659 10657 10652 10650 10652 10653 10656 10659 10660 10663 10666 10669 10671 10671 10670 10670 10670 10673
10343 10344 10346 10348 10351 10356 10360 10364 10369 10374 10380 10386 10392 10399 10405 10413 10420 10428 10436 10444 10452 10460 10468 10476 10483 10491 10502 10510 10515 10522 10530 10537 10544 10551 10560 10568 10574 10579 10585 10590 10594 10599 10607 10615 10621 10621 10619 10617 10621 10629 10634 10636 10637 10636 10637 10640 10642 10643 10645 10643 10640 10641 10644 10648 10650 10650 10651 10651 10652 10654 10655 10652 10646 10644 10646 10645 10647 10652 10654 10657 10661 10664 10666 10667 10666 10665 10664 10666
10336 10338 10340 10343 10347 10351 10355 10359 10364 10369 10376 10382 10389 10395 10403 10411 10419 10427 10436 10444 10452 10458 10464 10471 10480 10489 10498 10504 10510 10517 10524 10530 10537 10545 10553 10560 10567 10573 10579 10584 10589 10597 10604 10609 10612 10610 10609 10614 10621 10626 10629 10630 10631 10631 10632 10635 10637 10638 10639 10636 10634 10636 10640 10644 10645 10645 10645 10646 10646 10647 10646 10646 10643 10640 10637 10635 10638 10644 10650 10653 10656 10659 10661 10661 10661 10659 10656 10657
10331 10333 10335 10339 10343 10347 10351 10355 10361 10367 10374 10381 10387 10394 10402 10410 10419 10427 10435 10444 10451 10456 10462 10470 10479 10486 10494 10501 10507 10513 10519 10526 10533 10541 10547 10554 10562 10568 10574 10580 10588 10594 10598 10602 10603 10601 10605 10613 10618 10620 10623 10624 10625 10626 10627 10630 10632 10633 10634 10630 10629 10633 10637 10639 10640 10640 10641 10640 10639 10640 10640 10641 10641 10634 10627 10627 10631 10637 10644 10650 10653 10655 10656 10655 10653 10651 10648 10648
10326 10329 10332 10335 10339 10343 10348 10354 10360 10367 10373 10380 10387 10395 10403 10411 10419 10426 10434 10442 10448 10454 10460 10468 10474 10482 10492 10498 10502 10508 10516 10523 10529 10536 10543 10551 10558 10564 10570 10577 10583 10587 10591 10594 10595 10597 10604 10609 10612 10615 10617 10619 10620 10621 10622 10625 10626 10628 10627 10623 10625 10630 10632 10633 10636 10636 10636 10635 10635 10636 10636 10636 10635 10628 10622 10624 10627 10630 10637 10644 10647 10648 10649 10647 10644 10642 10642 10642
10323 10326 10329 10332 10337 10342 10347 10353 10359 10365 10371 10378 10385 10393 10401 10410 10418 10425 10433 10439 10446 10452 10458 10464 10471 10480 10488 10491 10496 10505 10511 10516 10525 10532 10540 10548 10554 10559 10567 10572 10577 10581 10585 10588 10591 10594 10600 10603 10606 10609 10611 10614 10615 10615 10616 10619 10620 10622 10619 10617 10622 10626 10626 10628 10631 10631 10630 10629 10630 10632 10632 10630 10627 10622 10620 10624 10627 10627 10630 10633 10637 10639 10639 10637 10636 10636 10636 10636
10321 10324 10327 10330 10335 10340 10346 10352 10358 10364 10370 10376 10383 10391 10398 10407 10415 10424 10431 10438 10444 10450 10455 10461 10469 10477 10483 10488 10495 10500 10503 10512 10522 10527 10533 10542 10547 10553 10561 10566 10570 10574 10579 10584 10585 10587 10593 10597 10600 10603 10606 10609 10610 10609 10611 10613 10614 10615 10613 10614 10618 10620 10621 10623 10625 10625 10624 10624 10625 10626 10626 10623 10621 10619 10619 10621 10624 10623 10622 10622 10625 10629 10630 10629 10629 10630 10630 10629
10319 10322 10325 10329 10334 10340 10346 10352 10358 10364 10370 10377 10385 10393 10401 10408 10415 10422 10430 10437 10442 10447 10452 10459 10465 10474 10480 10486 10490 10493 10501 10512 10518 10520 10528 10537 10542 10549 10555 10558 10562 10567 10574 10578 10577 10581 10588 10591 10594 10598 10601 10603 10604 10604 10606 10607 10608 10607 10609 10611 10612 10614 10616 10617 10619 10619 10618 10618 10619 10619 10618 10617 10617 10618 10616 10616 10618 10617 10615 10615 10616 10618 10622 10622 10623 10624 10623 10622
10318 10321 10325 10329 10334 10341 10347 10353 10359 10365 10371 10379 10386 10394 10401 10409 10416 10422 10429 10434 10439 10444 10450 10456 10463 10471 10476 10481 10485 10491 10499 10508 10512 10516 10526 10534 10539 10544 10549 10552 10558 10565 10572 10573 10572 10577 10584 10586 10590 10594 10596 10598 10599 10599 10600 10602 10601 10601 10605 10606 10607 10609 10611 10611 10613 10612 10612 10614 10612 10610 10611 10613 10615 10616 10614 10611 10611 10610 10609 10609 10610 10611 10614 10615 10615 10616 10616 10615
10318 10321 10325 10330 10336 10341 10347 10353 10359 10366 10373 10380 10386 10393 10400 10408 10415 10421 10427 10432 10437 10443 10449 10454 10461 10467 10473 10478 10483 10488 10496 10504 10510 10516 10523 10531 10537 10541 10545 10550 10556 10563 10568 10568 10568 10573 10578 10582 10585 10588 10590 10593 10593 10593 10594 10596 10596 10596 10600 10601 10602 10605 10606 10606 10607 10605 10606 10607 10604 10603 10606 10609 10611 10613 10611 10607 10605 10604 10602 10602 10603 10606 10608 10608 10608 10607 10607 10608
10318 10322 10327 10332 10337 10342 10348 10354 10361 10368 10375 10381 10388 10395 10402 10408 10414 10420 10426 10432 10437 10441 10446 10452 10458 10463 10469 10475 10479 10486 10494 10502 10508 10511 10517 10525 10530 10533 10538 10544 10550 10557 10561 10561 10562 10567 10572 10576 10579 10582 10585 10587 10588 10587 10588 10590 10591 10593 10594 10595 10597 10599 10601 10602 10601 10599 10600 10599 10597 10598 10601 10604 10606 10608 10607 10604 10601 10599 10597 10595 10596 10599 10601 10601 10600 10599 10600 10601
10319 10323 10328 10333 10338 10344 10350 10358 10365 10372 10377 10383 10389 10396 10403 10408 10412 10417 10423 10427 10431 10435 10441 10447 10453 10459 10465 10471 10477 10484 10492 10498 10502 10504 10510 10518 10523 10526 10532 10537 10543 10549 10552 10552 10555 10560 10565 10569 10573 10576 10580 10582 10581 10580 10582 10584 10587 10588 10589 10590 10592 10594 10596 10596 10595 10594 10595 10593 10592 10594 10595 10598 10600 10602 10603 10602 10597 10594 10592 10590 10590 10591 10593 10593 10592 10592 10593 10594
10320 10324 10329 10335 10340 10347 10354 10361 10367 10373 10378 10384 10389 10396 10402 10405 10409 10414 10419 10423 10426 10431 10437 10442 10449 10455 10461 10467 10473 10480 10487 10492 10496 10499 10506 10514 10519 10523 10528 10533 10539 10543 10545 10547 10551 10556 10560 10565 10569 10570 10574 10575 10573 10574 10577 10580 10583 10583 10583 10584 10587 10589 10590 10590 10589 10589 10590 10590 10589 10589 10590 10593 10595 10596 10598 10596 10592 10589 10587 10585 10584 10585 10585 10585 10584 10585 10587 10588
10320 10325 10331 10337 10342 10349 10356 10363 10368 10373 10378 10383 10389 10394 10397 10401 10407 10413 10416 10420 10424 10429 10434 10441 10447 10453 10458 10463 10470 10477 10482 10486 10490 10495 10501 10508 10514 10518 10522 10527 10532 10536 10540 10544 10548 10552 10556 10560 10562 10563 10567 10568 10567 10570 10573 10575 10577 10576 10577 10580 10582 10583 10584 10584 10584 10585 10586 10586 10585 10584 10585 10587 10589 10590 10591 10589 10586 10584 10581 10579 10579 10579 10579 10579 10578 10579 10581 10582
10322 10327 10332 10337 10343 10350 10357 10363 10368 10373 10378 10384 10388 10390 10393 10398 10405 10410 10414 10418 10422 10427 10434 10441 10447 10451 10455 10460 10467 10473 10479 10483 10487 10492 10496 10502 10508 10512 10516 10520 10524 10529 10534 10537 10540 10544 10549 10553 10554 10557 10561 10562 10562 10565 10568 10569 10571 10571 10572 10574 10575 10576 10578 10579 10580 10581 10582 10581 10580 10580 10580 10581 10583 10584 10584 10582 10580 10579 10577 10574 10573 10573 10574 10573 10573 10574 10575 10577
10324 10328 10333 10338 10344 10350 10356 10362 10368 10373 10378 10381 10384 10387 10391 10398 10404 10408 10413 10417 10422 10427 10433 10438 10443 10448 10452 10457 10462 10468 10473 10478 10483 10488 10493 10497 10502 10506 10510 10513 10518 10523 10527 10530 10533 10538 10543 10546 10548 10552 10556 10556 10556 10559 10563 10565 10566 10567 10567 10567 10569 10572 10574 10575 10576 10577 10577 10576 10575 10575 10575 10576 10577 10577 10576 10575 10574 10574 10572 10570 10569 10568 10569 10569 10569 10570 10571 10572
10326 10330 10335 10340 10345 10350 10356 10361 10366 10371 10375 10378 10381 10386 10392 10397 10402 10406 10409 10414 10420 10426 10431 10435 10440 10445 10449 10453 10458 10464 10469 10475 10479 10484 10488 10491 10495 10499 10503 10507 10511 10516 10520 10525 10530 10534 10537 10542 10545 10548 10550 10551 10552 10555 10558 10559 10560 10561 10561 10561 10565 10569 10569 10570 10571 10572 10573 10571 10570 10571 10571 10571 10571 10571 10569 10568 10567 10568 10567 10566 10565 10564 10565 10566 10566 10567 10568 10569
10327 10331 10336 10341 10346 10351 10356 10360 10365 10369 10372 10375 10380 10384 10389 10395 10400 10403 10407 10412 10418 10424 10429 10433 10438 10442 10447 10452 10458 10464 10469 10472 10475 10478 10482 10485 10488 10493 10498 10504 10509 10513 10518 10523 10527 10529 10533 10538 10541 10543 10545 10546 10548 10550 10552 10552 10552 10555 10556 10558 10561 10563 10565 10566 10566 10567 10567 10566 10566 10566 10565 10565 10566 10565 10564 10562 10561 10561 10561 10561 10560 10560 10561 10561 10562 10563 10564 10565
10326 10331 10336 10341 10347 10352 10356 10361 10364 10366 10369 10373 10378 10382 10387 10393 10397 10401 10406 10411 10416 10421 10426 10429 10433 10437 10442 10449 10455 10461 10465 10469 10471 10473 10477 10480 10484 10491 10498 10504 10507 10511 10516 10521 10523 10526 10530 10534 10536 10537 10540 10542 10543 10542 10543 10544 10546 10549 10553 10555 10557 10558 10560 10562 10562 10562 10562 10562 10562 10562 10561 10561 10561 10560 10558 10557 10556 10555 10555 10555 10555 10556 10557 10557 10557 10558 10560 10562
10326 10331 10336 10341 10347 10351 10355 10358 10360 10363 10367 10372 10377 10382 10388 10392 10395 10400 10405 10409 10413 10418 10422 10425 10429 10435 10441 10446 10450 10454 10460 10465 10468 10471 10475 10478 10483 10491 10497 10502 10505 10508 10512 10515 10519 10524 10529 10531 10530 10531 10534 10536 10536 10534 10534 10538 10542 10546 10550 10553 10554 10555 10557 10557 10557 10557 10557 10557 10558 10557 10557 10557 10556 10554 10553 10552 10551 10550 10551 10551 10552 10553 10553 10552 10553 10555 10557 10560
10325 10330 10335 10340 10345 10349 10352 10355 10359 10363 10368 10372 10378 10383 10388 10392 10395 10400 10404 10407 10411 10415 10419 10423 10427 10433 10439 10443 10447 10451 10456 10460 10464 10468 10473 10478 10483 10490 10495 10498 10500 10503 10506 10510 10515 10521 10523 10523 10523 10525 10528 10529 10528 10529 10530 10534 10539 10543 10547 10550 10551 10551 10552 10553 10552 10552 10552 10552 10553 10552 10552 10552 10550 10549 10549 10548 10547 10546 10547 10548 10548 10549 10549 10548 10549 10552 10554 10557
10324 10329 10333 10337 10341 10346 10351 10355 10360 10364 10369 10374 10379 10384 10388 10393 10396 10399 10402 10405 10409 10413 10418 10421 10426 10430 10435 10439 10444 10448 10452 10455 10459 10462 10467 10472 10478 10484 10489 10492 10494 10498 10501 10505 10509 10512 10514 10515 10515 10517 10519 10520 10521 10525 10527 10529 10534 10539 10542 10544 10544 10545 10547 10547 10546 10546 10547 10548 10548 10547 10547 10547 10545 10544 10544 10543 10542 10543 10543 10544 10544 10544 10544 10544 10546 10548 10550 10553
10322 10326 10331 10335 10339 10343 10348 10354 10359 10366 10371 10375 10379 10384 10388 10390 10392 10395 10399 10402 10407 10412 10417 10420 10425 10429 10432 10437 10441 10444 10448 10452 10456 10460 10464 10469 10472 10476 10480 10484 10487 10491 10495 10499 10502 10504 10507 10509 10509 10509 10512 10514 10515 10520 10524 10525 10529 10533 10535 10537 10538 10540 10541 10540 10539 10541 10543 10543 10542 10541 10541 10541 10541 10540 10539 10538 10538 10538 10539 10540 10540 10540 10541 10541 10542 10544 10547 10549
10320 10325 10329 10333 10337 10341 10346 10351 10357 10363 10368 10372 10377 10382 10384 10385 10387 10392 10397 10401 10405 10410 10414 10418 10422 10425 10428 10433 10437 10440 10444 10449 10454 10458 10463 10466 10467 10469 10473 10477 10481 10484 10488 10491 10494 10497 10500 10502 10503 10503 10506 10508 10510 10515 10520 10521 10522 10526 10528 10530 10532 10533 10533 10533 10533 10535 10537 10538 10537 10536 10536 10536 10536 10535 10534 10533 10533 10533 10535 10536 10537 10537 10537 10538 10540 10542 10544 10546
10319 10323 10327 10332 10336 10341 10346 10351 10356 10360 10362 10367 10373 10377 10378 10380 10385 10391 10396 10399 10403 10406 10410 10414 10417 10419 10422 10426 10431 10434 10438 10444 10449 10454 10458 10460 10461 10463 10467 10472 10476 10479 10482 10484 10487 10490 10493 10496 10498 10499 10500 10502 10504 10509 10513 10515 10515 10518 10521 10523 10524 10526 10526 10526 10527 10530 10532 10532 10531 10531 10530 10530 10530 10530 10529 10528 10528 10529 10530 10532 10533 10534 10535 10535 10537 10539 10542 10544
10317 10321 10326 10331 10336 10341 10346 10350 10354 10357 10361 10366 10371 10374 10377 10381 10385 10389 10393 10397 10400 10402 10406 10410 10413 10415 10418 10421 10425 10429 10433 10438 10444 10448 10451 10452 10454 10457 10461 10465 10470 10474 10476 10478 10481 10484 10487 10490 10493 10494 10495 10497 10499 10502 10506 10509 10509 10512 10514 10516 10518 10519 10520 10520 10522 10524 10526 10526 10526 10526 10525 10525 10525 10525 10524 10523 10523 10525 10526 10528 10529 10530 10531 10532 10534 10537 10539 10541
10315 10320 10324 10329 10334 10339 10344 10348 10352 10356 10360 10365 10369 10373 10377 10380 10383 10387 10391 10394 10397 10399 10401 10404 10407 10410 10413 10416 10420 10424 10428 10434 10439 10444 10447 10448 10449 10452 10455 10458 10462 10466 10469 10471 10474 10477 10480 10484 10487 10489 10491 10493 10493 10496 10500 10502 10503 10505 10507 10509 10512 10514 10514 10514 10516 10518 10520 10520 10520 10521 10520 10519 10519 10519 10518 10518 10519 10521 10522 10524 10525 10526 10527 10529 10531 10533 10536 10537
10315 10320 10324 10328 10333 10337 10342 10346 10351 10356 10360 10364 10368 10372 10376 10378 10380 10384 10387 10390 10393 10394 10396 10398 10401 10405 10410 10413 10417 10421 10426 10431 10435 10439 10443 10445 10446 10448 10450 10453 10455 10458 10462 10465 10467 10470 10474 10478 10482 10484 10486 10487 10487 10489 10492 10494 10496 10498 10500 10503 10506 10508 10509 10509 10511 10513 10514 10515 10515 10516 10516 10515 10515 10515 10514 10513 10516 10518 10519 10520 10521 10522 10524 10525 10527 10530 10532 10534
10314 10318 10322 10326 10330 10335 10339 10343 10348 10354 10358 10363 10367 10370 10373 10375 10377 10380 10383 10386 10388 10389 10391 10394 10398 10403 10408 10411 10413 10417 10420 10424 10427 10431 10436 10439 10440 10441 10443 10446 10448 10451 10455 10458 10461 10464 10468 10472 10477 10479 10481 10482 10483 10484 10485 10487 10489 10491 10494 10497 10499 10501 10502 10503 10505 10507 10508 10509 10510 10511 10511 10510 10510 10511 10511 10510 10512 10515 10517 10517 10518 10519 10520 10522 10524 10526 10528 10530
10311 10315 10319 10324 10329 10334 10339 10343 10348 10352 10356 10360 10363 10366 10369 10371 10373 10376 10379 10382 10383 10385 10388 10391 10396 10400 10403 10404 10407 10409 10411 10413 10417 10421 10426 10429 10431 10432 10434 10437 10441 10444 10448 10451 10455 10458 10461 10466 10471 10474 10475 10476 10476 10477 10479 10481 10482 10485 10488 10491 10493 10495 10496 10498 10500 10501 10502 10504 10505 10506 10506 10506 10506 10507 10508 10507 10508 10510 10512 10513 10515 10515 10516 10518 10519 10521 10524 10526
10309 10314 10319 10324 10328 10333 10338 10342 10346 10350 10353 10356 10359 10363 10365 10367 10370 10373 10376 10378 10379 10382 10385 10388 10392 10395 10397 10398 10400 10402 10403 10406 10411 10416 10420 10421 10423 10425 10427 10430 10434 10438 10441 10444 10448 10451 10454 10459 10464 10467 10467 10467 10468 10470 10472 10474 10476 10478 10481 10484 10487 10489 10490 10492 10494 10495 10496 10498 10500 10501 10502 10502 10503 10503 10503 10503 10504 10505 10507 10508 10510 10511 10512 10514 10515 10516 10519 10521